Skip Page Navigation
NASA JPL Caltech
NASA Logo - Jet Propulsion Laboratory + View the NASA Portal
+ Center for Near-Earth Object Studies
JPL Home Earth Solar System Stars & Galaxies Technology
JPL Solar System Dynamics
BODIES ORBITS EPHEMERIDES TOOLS PHYSICAL DATA DISCOVERY FAQ SITE MAP
IMPORTANT: The SSD Announcement email list is now available. Major changes are coming in the near future, including possible hostname and/or URL changes. To be notified of such changes, subscribe to this email list.

Please visit this page for more details.


JPL Small-Body Database Browser
Search: [ help ]  
447563 (2006 TG3)
Classification: Main-belt Asteroid          SPK-ID: 2447563
Ephemeris | Orbit Diagram | Orbital Elements | Mission Design | Physical Parameters | Discovery Circumstances ]

[ show orbit diagram ]
Orbital Elements at Epoch 2458600.5 (2019-Apr-27.0) TDB
Reference: JPL 13 (heliocentric ecliptic J2000)
 Element Value Uncertainty (1-sigma)   Units 
e .1165872872967931 5.1059e-08  
a 2.726300607110687 4.08e-08 au
q 2.408448614972051 1.5084e-07 au
i 5.429052837750496 5.6438e-06 deg
node 68.75356512843251 8.7613e-05 deg
peri 348.4571298034543 0.00010442 deg
M 249.9470351776118 5.7849e-05 deg
tp 2459103.141431362437
(2020-Sep-10.64143136)
0.00027216 TDB
period 1644.216633168491
4.50
3.6909e-05
1.011e-07
d
yr
n .218949250809038 4.9149e-09 deg/d
Q 3.044152599249322 4.5556e-08 au
  Orbit Determination Parameters
   # obs. used (total)      109  
   data-arc span      4709 days (12.89 yr)  
   first obs. used      2006-10-02  
   last obs. used      2019-08-24  
   planetary ephem.      DE431  
   SB-pert. ephem.      SB431-N16  
   condition code      0  
   norm. resid. RMS      .62334  
   source      ORB  
   producer      Otto Matic  
   solution date      2019-Sep-24 07:49:20  

Additional Information
 Earth MOID = 1.42048 au 
 Jupiter MOID = 2.27126 au 
 T_jup = 3.340 
[ show covariance matrix ]

Ephemeris | Orbit Diagram | Orbital Elements | Mission Design | Physical Parameters | Discovery Circumstances ]

Physical Parameter Table
Parameter Symbol Value Units Sigma Reference Notes
absolute magnitude H 17.1   n/a MPO413514  

447563 (2006 TG3)          Discovered 2006-Oct-02 by Mt. Lemmon Survey at Mount Lemmon
Reference: Last Updated: 2015-10-28

Alternate Designations
 2006 TG3 = 2011 WG89 
Ephemeris | Orbit Diagram | Orbital Elements | Mission Design | Physical Parameters | Discovery Circumstances ]
ABOUT SSD CREDITS/AWARDS PRIVACY/COPYRIGHT GLOSSARY LINKS
FirstGov
(server date/time)  
NASA Home Page
Site Manager:   Ryan S. Park
Webmaster  Alan B. Chamberlin